This is the latest recevied weather packets stored in our database for station/object KB1WCR. If no packets are shown the sender has not sent any weather packets the latest 10 day(s).
| Time | Temp. | Humidity | Pressure | Rain* | Wind** | Luminosity | Snow |
|---|---|---|---|---|---|---|---|
| 1777806311 | 5.56° C | 99% | 1006.9 hPa | 0 mm | - | 20 W/m² | - |
| 1777806008 | 5.56° C | 99% | 1007.1 hPa | 0 mm | - | 20 W/m² | - |
| 1777805704 | 5.56° C | 99% | 1006.9 hPa | 0 mm | - | 22 W/m² | - |
| 1777805402 | 5° C | 99% | 1006.7 hPa | 0 mm | - | 26 W/m² | - |
| 1777805100 | 5° C | 99% | 1006.6 hPa | 0 mm | - | 25 W/m² | - |
| 1777804797 | 5° C | 99% | 1006.7 hPa | 0 mm | - | 25 W/m² | - |
| 1777804495 | 5° C | 99% | 1006.6 hPa | 0 mm | - | 24 W/m² | - |
| 1777804192 | 5° C | 99% | 1006.6 hPa | 0 mm | - | 20 W/m² | - |
| 1777803889 | 5° C | 99% | 1006.5 hPa | 0 mm | - | 17 W/m² | - |
| 1777803585 | 5° C | 99% | 1006.6 hPa | 0 mm | - | 15 W/m² | - |
| 1777803283 | 5° C | 99% | 1006.9 hPa | 0 mm | - | 12 W/m² | - |
| 1777802979 | 5° C | 99% | 1006.7 hPa | 0 mm | - | 10 W/m² | - |
| 1777802677 | 5° C | 99% | 1007 hPa | 0 mm | - | 8 W/m² | - |
| 1777802374 | 5° C | 99% | 1006.8 hPa | 0 mm | - | 7 W/m² | - |
| 1777802073 | 5° C | 99% | 1006.9 hPa | 0 mm | - | 6 W/m² | - |
| 1777801770 | 4.44° C | 99% | 1006.8 hPa | 0 mm | - | 5 W/m² | - |
| 1777801467 | 4.44° C | 99% | 1006.7 hPa | 0 mm | - | 4 W/m² | - |
| 1777801163 | 4.44° C | 99% | 1006.7 hPa | 0 mm | - | 3 W/m² | - |
| 1777800860 | 4.44° C | 99% | 1006.6 hPa | 0 mm | - | 2 W/m² | - |
| 1777800555 | 4.44° C | 99% | 1006.5 hPa | 0 mm | - | 1 W/m² | - |
| 1777800252 | 4.44° C | 99% | 1006.8 hPa | 0 mm | - | 1 W/m² | - |
| 1777799948 | 4.44° C | 99% | 1006.8 hPa | 0 mm | - | 0 W/m² | - |
| 1777799644 | 4.44° C | 99% | 1007 hPa | 0 mm | - | 0 W/m² | - |
| 1777799341 | 5° C | 99% | 1007.2 hPa | 0 mm | - | 0 W/m² | - |
| 1777799036 | 5° C | 99% | 1007.3 hPa | 0 mm | - | 0 W/m² | - |
* Rain latest hour (hover to see other rain measurements)
** Current wind speed in m/s (hover to see current wind gust speed)